Time,TemperatureF,DewpointF,PressureIn,WindDirection,WindDirectionDegrees,WindSpeedMPH,WindSpeedGustMPH,Humidity,HourlyPrecipIn,Conditions,Clouds,dailyrainin,SoftwareType,DateUTC
2013-02-20 00:00:00,53.0,44.0,29.80,WSW,237,1.0,3.0,72,0.00,,,0.00,,2013-02-19 22:00:00,
2013-02-20 00:01:00,53.0,46.0,29.80,NNW,345,0.0,5.0,76,0.00,,,0.00,,2013-02-19 22:01:00,
2013-02-20 00:11:00,53.0,46.0,29.80,NNW,345,0.0,5.0,76,0.00,,,0.00,,2013-02-19 22:11:00,
2013-02-20 00:21:00,53.0,44.0,29.80,WSW,237,1.0,3.0,72,0.00,,,0.00,,2013-02-19 22:21:00,
2013-02-20 00:31:00,53.0,44.0,29.80,WSW,237,1.0,3.0,72,0.00,,,0.00,,2013-02-19 22:31:00,
2013-02-20 00:42:00,53.0,44.0,29.80,WSW,237,1.0,3.0,72,0.00,,,0.00,,2013-02-19 22:42:00,
2013-02-20 00:52:00,53.0,44.0,29.80,WSW,237,1.0,3.0,72,0.00,,,0.00,,2013-02-19 22:52:00,
2013-02-20 01:21:00,53.0,43.0,29.80,North,4,0.0,5.0,69,0.00,,,0.00,,2013-02-19 23:21:00,
2013-02-20 01:30:00,52.0,42.0,29.80,NW,323,1.0,3.0,68,0.00,,,0.00,,2013-02-19 23:30:00,
2013-02-20 01:32:00,53.0,43.0,29.80,North,4,0.0,5.0,69,0.00,,,0.00,,2013-02-19 23:32:00,
2013-02-20 01:42:00,53.0,43.0,29.80,North,4,0.0,5.0,69,0.00,,,0.00,,2013-02-19 23:42:00,
2013-02-20 01:52:00,52.0,42.0,29.80,NW,323,1.0,3.0,68,0.00,,,0.00,,2013-02-19 23:52:00,
2013-02-20 02:01:00,52.0,42.0,29.80,NW,323,1.0,3.0,68,0.00,,,0.00,,2013-02-20 00:01:00,
2013-02-20 02:11:00,52.0,42.0,29.80,NW,323,1.0,3.0,68,0.00,,,0.00,,2013-02-20 00:11:00,
2013-02-20 02:21:00,52.0,42.0,29.80,NW,323,1.0,3.0,68,0.00,,,0.00,,2013-02-20 00:21:00,
2013-02-20 10:52:00,52.0,41.0,29.83,SSE,153,0.0,3.0,66,0.00,,,0.00,,2013-02-20 08:52:00,
2013-02-20 11:01:00,52.0,41.0,29.83,SSE,153,0.0,3.0,66,0.00,,,0.00,,2013-02-20 09:01:00,
2013-02-20 11:11:00,52.0,41.0,29.83,SSE,153,0.0,3.0,66,0.00,,,0.00,,2013-02-20 09:11:00,
2013-02-20 11:21:00,56.0,37.0,29.97,NNW,343,1.0,7.0,48,0.00,,,0.00,,2013-02-20 09:21:00,
2013-02-20 11:31:00,56.0,37.0,29.97,NNW,343,1.0,7.0,48,0.00,,,0.00,,2013-02-20 09:31:00,
2013-02-20 11:42:00,56.0,37.0,29.97,NNW,343,1.0,7.0,48,0.00,,,0.00,,2013-02-20 09:42:00,
2013-02-20 11:51:00,57.0,36.0,29.97,South,185,1.0,5.0,46,0.00,,,0.00,,2013-02-20 09:51:00,
2013-02-20 12:01:00,57.0,36.0,29.97,South,185,1.0,5.0,46,0.00,,,0.00,,2013-02-20 10:01:00,
2013-02-20 12:12:00,57.0,36.0,29.97,South,185,1.0,5.0,46,0.00,,,0.00,,2013-02-20 10:12:00,
2013-02-20 12:21:00,59.0,39.0,29.97,NNE,31,5.0,8.0,47,0.00,,,0.00,,2013-02-20 10:21:00,
2013-02-20 12:31:00,59.0,39.0,29.97,NNE,31,5.0,8.0,47,0.00,,,0.00,,2013-02-20 10:31:00,
2013-02-20 12:42:00,59.0,39.0,29.97,NNE,31,5.0,8.0,47,0.00,,,0.00,,2013-02-20 10:42:00,
2013-02-20 12:51:00,60.0,39.0,29.97,ENE,64,4.0,9.0,45,0.00,,,0.00,,2013-02-20 10:51:00,
2013-02-20 13:01:00,60.0,39.0,29.97,ENE,64,4.0,9.0,45,0.00,,,0.00,,2013-02-20 11:01:00,
2013-02-20 13:11:00,61.0,39.0,29.97,South,180,5.0,7.0,44,0.00,,,0.00,,2013-02-20 11:11:00,
2013-02-20 13:21:00,61.0,39.0,29.97,South,180,5.0,7.0,44,0.00,,,0.00,,2013-02-20 11:21:00,
2013-02-20 13:31:00,61.0,39.0,29.97,South,180,5.0,7.0,44,0.00,,,0.00,,2013-02-20 11:31:00,
2013-02-20 13:42:00,61.0,39.0,29.97,South,180,5.0,7.0,44,0.00,,,0.00,,2013-02-20 11:42:00,
2013-02-20 13:52:00,62.0,38.0,29.97,WSW,258,6.0,9.0,41,0.00,,,0.00,,2013-02-20 11:52:00,
2013-02-20 14:00:00,61.0,36.0,29.97,WSW,251,6.0,14.0,40,0.00,,,0.00,,2013-02-20 12:00:00,
2013-02-20 14:01:00,62.0,38.0,29.97,WSW,258,6.0,9.0,41,0.00,,,0.00,,2013-02-20 12:01:00,
2013-02-20 14:11:00,62.0,38.0,29.97,WSW,258,6.0,9.0,41,0.00,,,0.00,,2013-02-20 12:11:00,
2013-02-20 14:21:00,61.0,36.0,29.97,WSW,251,6.0,14.0,40,0.00,,,0.00,,2013-02-20 12:21:00,
2013-02-20 14:31:00,61.0,36.0,29.97,WSW,251,6.0,14.0,40,0.00,,,0.00,,2013-02-20 12:31:00,
2013-02-20 14:42:00,61.0,36.0,29.97,WSW,251,6.0,14.0,40,0.00,,,0.00,,2013-02-20 12:42:00,
2013-02-20 14:52:00,61.0,36.0,29.97,WSW,251,6.0,14.0,40,0.00,,,0.00,,2013-02-20 12:52:00,
2013-02-20 15:22:00,66.0,40.0,29.97,SW,219,6.0,10.0,38,0.00,,,0.00,,2013-02-20 13:22:00,
2013-02-20 15:32:00,66.0,40.0,29.97,SW,219,6.0,10.0,38,0.00,,,0.00,,2013-02-20 13:32:00,
2013-02-20 15:42:00,66.0,40.0,29.97,SW,219,6.0,10.0,38,0.00,,,0.00,,2013-02-20 13:42:00,
2013-02-20 15:51:00,78.0,46.0,29.97,SSW,202,5.0,9.0,32,0.00,,,0.00,,2013-02-20 13:51:00,
2013-02-20 16:00:00,63.0,36.0,29.94,SSW,199,5.0,9.0,36,0.00,,,0.00,,2013-02-20 14:00:00,
2013-02-20 16:01:00,78.0,46.0,29.97,SSW,202,5.0,9.0,32,0.00,,,0.00,,2013-02-20 14:01:00,
2013-02-20 16:11:00,78.0,46.0,29.97,SSW,202,5.0,9.0,32,0.00,,,0.00,,2013-02-20 14:11:00,
2013-02-20 16:21:00,63.0,36.0,29.94,SSW,199,5.0,9.0,36,0.00,,,0.00,,2013-02-20 14:21:00,
2013-02-20 16:32:00,63.0,36.0,29.94,SSW,199,5.0,9.0,36,0.00,,,0.00,,2013-02-20 14:32:00,
2013-02-20 16:42:00,63.0,36.0,29.94,SSW,199,5.0,9.0,36,0.00,,,0.00,,2013-02-20 14:42:00,
2013-02-20 16:52:00,63.0,36.0,29.94,SSW,199,5.0,9.0,36,0.00,,,0.00,,2013-02-20 14:52:00,
2013-02-20 17:12:00,58.0,37.0,29.94,SSW,193,7.0,10.0,46,0.00,,,0.00,,2013-02-20 15:12:00,
2013-02-20 17:22:00,58.0,37.0,29.94,SSW,193,7.0,10.0,46,0.00,,,0.00,,2013-02-20 15:22:00,
2013-02-20 17:32:00,58.0,37.0,29.94,SSW,193,7.0,10.0,46,0.00,,,0.00,,2013-02-20 15:32:00,
2013-02-20 17:42:00,58.0,38.0,29.97,SSW,194,6.0,12.0,48,0.00,,,0.00,,2013-02-20 15:42:00,
2013-02-20 17:52:00,58.0,38.0,29.97,SSW,194,6.0,12.0,48,0.00,,,0.00,,2013-02-20 15:52:00,
2013-02-20 18:01:00,58.0,38.0,29.97,SSW,194,6.0,12.0,48,0.00,,,0.00,,2013-02-20 16:01:00,
2013-02-20 18:11:00,58.0,38.0,29.97,SSW,194,6.0,12.0,48,0.00,,,0.00,,2013-02-20 16:11:00,
2013-02-20 18:21:00,56.0,37.0,29.97,SW,214,7.0,12.0,49,0.00,,,0.00,,2013-02-20 16:21:00,
2013-02-20 18:32:00,56.0,37.0,29.97,SW,214,7.0,12.0,49,0.00,,,0.00,,2013-02-20 16:32:00,
2013-02-20 18:42:00,56.0,37.0,29.97,SW,214,7.0,12.0,49,0.00,,,0.00,,2013-02-20 16:42:00,
2013-02-20 18:52:00,55.0,37.0,29.97,South,170,5.0,12.0,50,0.00,,,0.00,,2013-02-20 16:52:00,
2013-02-20 19:01:00,55.0,37.0,29.97,South,170,5.0,12.0,50,0.00,,,0.00,,2013-02-20 17:01:00,
2013-02-20 19:11:00,55.0,37.0,29.97,WNW,299,5.0,10.0,51,0.00,,,0.00,,2013-02-20 17:11:00,
2013-02-20 19:21:00,55.0,37.0,29.97,WNW,299,5.0,10.0,51,0.00,,,0.00,,2013-02-20 17:21:00,
2013-02-20 19:32:00,55.0,37.0,29.97,WNW,299,5.0,10.0,51,0.00,,,0.00,,2013-02-20 17:32:00,
2013-02-20 19:42:00,55.0,37.0,29.97,WNW,299,5.0,10.0,51,0.00,,,0.00,,2013-02-20 17:42:00,
2013-02-20 19:52:00,55.0,38.0,29.97,NNW,331,3.0,7.0,52,0.00,,,0.00,,2013-02-20 17:52:00,
2013-02-20 20:02:00,55.0,38.0,29.97,NNW,331,3.0,7.0,52,0.00,,,0.00,,2013-02-20 18:02:00,
2013-02-20 20:11:00,55.0,38.0,29.97,NNW,331,3.0,7.0,52,0.00,,,0.00,,2013-02-20 18:11:00,
2013-02-20 20:21:00,55.0,38.0,29.97,ESE,104,2.0,6.0,52,0.00,,,0.00,,2013-02-20 18:21:00,
2013-02-20 20:31:00,55.0,38.0,29.97,ESE,104,2.0,6.0,52,0.00,,,0.00,,2013-02-20 18:31:00,
2013-02-20 20:42:00,55.0,38.0,29.97,ESE,104,2.0,6.0,52,0.00,,,0.00,,2013-02-20 18:42:00,
2013-02-20 20:52:00,55.0,37.0,30.00,WSW,240,2.0,5.0,51,0.00,,,0.00,,2013-02-20 18:52:00,
2013-02-20 21:00:00,55.0,37.0,30.00,NNW,338,1.0,6.0,51,0.00,,,0.00,,2013-02-20 19:00:00,
2013-02-20 21:01:00,55.0,37.0,30.00,WSW,240,2.0,5.0,51,0.00,,,0.00,,2013-02-20 19:01:00,
2013-02-20 21:11:00,55.0,37.0,30.00,WSW,240,2.0,5.0,51,0.00,,,0.00,,2013-02-20 19:11:00,
2013-02-20 21:21:00,55.0,37.0,30.00,NNW,338,1.0,6.0,51,0.00,,,0.00,,2013-02-20 19:21:00,
2013-02-20 21:31:00,55.0,37.0,30.00,NNW,338,1.0,6.0,51,0.00,,,0.00,,2013-02-20 19:31:00,
2013-02-20 21:41:00,55.0,37.0,30.00,NNW,338,1.0,6.0,51,0.00,,,0.00,,2013-02-20 19:41:00,
2013-02-20 21:52:00,55.0,37.0,30.00,NNW,338,1.0,6.0,51,0.00,,,0.00,,2013-02-20 19:52:00,
2013-02-20 22:11:00,54.0,37.0,30.00,NNW,346,0.0,7.0,53,0.00,,,0.00,,2013-02-20 20:11:00,
2013-02-20 22:21:00,54.0,37.0,30.00,NNW,346,0.0,7.0,53,0.00,,,0.00,,2013-02-20 20:21:00,
2013-02-20 22:31:00,54.0,37.0,30.00,NNW,346,0.0,7.0,53,0.00,,,0.00,,2013-02-20 20:31:00,
2013-02-20 22:41:00,54.0,38.0,30.00,NNW,346,0.0,3.0,54,0.00,,,0.00,,2013-02-20 20:41:00,
2013-02-20 22:51:00,54.0,38.0,30.00,NNW,346,0.0,3.0,54,0.00,,,0.00,,2013-02-20 20:51:00,
2013-02-20 23:01:00,54.0,38.0,30.00,NNW,346,0.0,3.0,54,0.00,,,0.00,,2013-02-20 21:01:00,
2013-02-20 23:11:00,54.0,39.0,30.00,NNW,346,0.0,0.0,56,0.00,,,0.00,,2013-02-20 21:11:00,
2013-02-20 23:21:00,54.0,39.0,30.00,NNW,346,0.0,0.0,56,0.00,,,0.00,,2013-02-20 21:21:00,
2013-02-20 23:31:00,54.0,39.0,30.00,NNW,346,0.0,0.0,56,0.00,,,0.00,,2013-02-20 21:31:00,
2013-02-20 23:42:00,54.0,39.0,30.00,NNW,346,0.0,0.0,56,0.00,,,0.00,,2013-02-20 21:42:00,
2013-02-20 23:52:00,54.0,40.0,30.00,NNW,347,2.0,6.0,58,0.00,,,0.00,,2013-02-20 21:52:00,